Time,TemperatureF,DewpointF,PressureIn,WindDirection,WindDirectionDegrees,WindSpeedMPH,WindSpeedGustMPH,Humidity,HourlyPrecipIn,Conditions,Clouds,dailyrainin,SoftwareType,DateUTC
2013-04-02 00:14:00,25.3,14.5,29.91,South,180,0.0,0.0,63,0.00,,,0.00,WUHU21623XXSP,2013-04-02 04:14:00,
2013-04-02 01:14:00,24.9,14.5,29.91,WNW,293,0.0,0.0,64,0.00,,,0.00,WUHU21623XXSP,2013-04-02 05:14:00,
2013-04-02 02:14:00,24.9,15.5,29.92,NNW,338,0.0,0.0,67,0.00,,,0.00,WUHU21623XXSP,2013-04-02 06:14:00,
2013-04-02 03:14:00,23.1,14.2,29.93,North,0,0.0,0.0,68,0.00,,,0.00,WUHU21623XXSP,2013-04-02 07:14:00,
2013-04-02 04:14:00,21.7,13.1,29.93,NNW,338,0.0,0.0,69,0.00,,,0.00,WUHU21623XXSP,2013-04-02 08:14:00,
2013-04-02 05:14:00,19.3,11.8,29.93,NNW,338,0.0,0.0,72,0.00,,,0.00,WUHU21623XXSP,2013-04-02 09:14:00,
2013-04-02 06:14:00,18.4,11.8,29.94,NW,315,0.0,0.0,75,0.00,,,0.00,WUHU21623XXSP,2013-04-02 10:14:00,
2013-04-02 07:14:00,18.6,12.6,29.95,SSW,203,0.0,0.0,77,0.00,,,0.00,WUHU21623XXSP,2013-04-02 11:14:00,
2013-04-02 08:14:00,21.3,15.5,29.95,South,180,0.0,0.0,78,0.00,,,0.00,WUHU21623XXSP,2013-04-02 12:14:00,
2013-04-02 09:14:00,26.5,18.4,29.97,South,180,0.0,0.0,71,0.00,,,0.00,WUHU21623XXSP,2013-04-02 13:14:00,
2013-04-02 10:14:00,30.1,17.5,29.96,WSW,248,0.0,0.0,59,0.00,,,0.00,WUHU21623XXSP,2013-04-02 14:14:00,
2013-04-02 11:14:00,32.8,16.1,29.97,West,270,8.7,8.7,50,0.00,,,0.00,WUHU21623XXSP,2013-04-02 15:14:00,
2013-04-02 12:14:00,34.8,16.0,29.97,West,270,11.4,11.4,46,0.00,,,0.00,WUHU21623XXSP,2013-04-02 16:14:00,
2013-04-02 12:51:00,36.6,16.0,29.97,WNW,292,10.5,10.5,43,0.00,,,0.00,WUHU21623XXSP,2013-04-02 16:51:00,
2013-04-02 12:56:00,36.3,15.8,29.97,WSW,247,5.1,10.5,43,0.00,,,0.00,WUHU21623XXSP,2013-04-02 16:56:00,
2013-04-02 13:01:00,36.1,15.6,29.97,SW,225,5.6,10.5,43,0.00,,,0.00,WUHU21623XXSP,2013-04-02 17:01:00,
2013-04-02 13:06:00,36.1,15.6,29.97,WNW,292,6.0,6.0,43,0.00,,,0.00,WUHU21623XXSP,2013-04-02 17:06:00,
2013-04-02 13:11:00,36.1,15.6,29.97,North,0,2.5,6.0,43,0.00,,,0.00,WUHU21623XXSP,2013-04-02 17:11:00,
2013-04-02 13:17:00,36.6,16.0,29.97,NW,315,5.6,5.6,43,0.00,,,0.00,WUHU21623XXSP,2013-04-02 17:17:00,
2013-04-02 13:22:00,36.8,15.7,29.97,NW,315,9.6,9.6,42,0.00,,,0.00,WUHU21623XXSP,2013-04-02 17:22:00,
2013-04-02 13:27:00,36.4,15.9,29.97,WSW,247,0.0,9.6,43,0.00,,,0.00,WUHU21623XXSP,2013-04-02 17:27:00,
2013-04-02 13:33:00,36.8,15.7,29.97,NNW,337,10.1,10.1,42,0.00,,,0.00,WUHU21623XXSP,2013-04-02 17:33:00,
2013-04-02 13:38:00,37.0,15.8,29.97,NNE,22,7.8,10.1,42,0.00,,,0.00,WUHU21623XXSP,2013-04-02 17:38:00,
2013-04-02 13:49:00,36.4,15.3,29.97,WSW,247,0.0,0.0,42,0.00,,,0.00,WUHU21623XXSP,2013-04-02 17:49:00,
2013-04-02 13:57:00,36.6,14.9,29.97,West,270,5.6,5.6,41,0.00,,,0.00,WUHU21623XXSP,2013-04-02 17:57:00,
2013-04-02 14:02:00,36.8,15.1,29.96,West,270,5.6,5.6,41,0.00,,,0.00,WUHU21623XXSP,2013-04-02 18:02:00,
2013-04-02 14:07:00,37.3,15.6,29.97,WSW,247,7.6,7.6,41,0.00,,,0.00,WUHU21623XXSP,2013-04-02 18:07:00,
2013-04-02 14:12:00,37.9,15.5,29.97,SW,225,8.1,8.1,40,0.00,,,0.00,WUHU21623XXSP,2013-04-02 18:12:00,
2013-04-02 14:17:00,38.2,15.8,29.96,WSW,247,0.0,8.1,40,0.00,,,0.00,WUHU21623XXSP,2013-04-02 18:17:00,
2013-04-02 14:23:00,38.4,16.0,29.96,WNW,292,3.4,5.6,40,0.00,,,0.00,WUHU21623XXSP,2013-04-02 18:23:00,
2013-04-02 14:28:00,38.8,16.3,29.96,SW,225,0.0,5.6,40,0.00,,,0.00,WUHU21623XXSP,2013-04-02 18:28:00,
2013-04-02 14:33:00,39.0,16.5,29.96,North,0,5.8,5.8,40,0.00,,,0.00,WUHU21623XXSP,2013-04-02 18:33:00,
2013-04-02 14:38:00,39.0,15.9,29.96,NNW,337,6.0,6.0,39,0.00,,,0.00,WUHU21623XXSP,2013-04-02 18:38:00,
2013-04-02 14:44:00,38.4,15.4,29.96,WNW,292,5.6,6.0,39,0.00,,,0.00,WUHU21623XXSP,2013-04-02 18:44:00,
2013-04-02 14:49:00,38.4,16.0,29.96,WNW,292,5.1,5.6,40,0.00,,,0.00,WUHU21623XXSP,2013-04-02 18:49:00,
2013-04-02 14:54:00,38.4,16.0,29.96,WNW,292,10.1,10.1,40,0.00,,,0.00,WUHU21623XXSP,2013-04-02 18:54:00,
2013-04-02 14:59:00,38.6,16.1,29.96,NW,315,8.1,10.1,40,0.00,,,0.00,WUHU21623XXSP,2013-04-02 18:59:00,
2013-04-02 15:04:00,39.0,15.9,29.96,NW,315,7.2,8.1,39,0.00,,,0.00,WUHU21623XXSP,2013-04-02 19:04:00,
2013-04-02 15:10:00,39.3,16.2,29.96,WSW,247,0.0,7.2,39,0.00,,,0.00,WUHU21623XXSP,2013-04-02 19:10:00,
2013-04-02 15:15:00,39.3,15.6,29.96,WNW,292,11.6,11.6,38,0.00,,,0.00,WUHU21623XXSP,2013-04-02 19:15:00,
2013-04-02 15:20:00,39.3,16.2,29.96,WNW,292,8.7,11.6,39,0.00,,,0.00,WUHU21623XXSP,2013-04-02 19:20:00,
2013-04-02 15:25:00,39.7,15.9,29.95,WNW,292,7.6,8.7,38,0.00,,,0.00,WUHU21623XXSP,2013-04-02 19:25:00,
2013-04-02 15:30:00,39.3,15.0,29.95,SW,225,6.5,8.5,37,0.00,,,0.00,WUHU21623XXSP,2013-04-02 19:30:00,
2013-04-02 15:35:00,39.3,15.6,29.95,WNW,292,0.0,6.5,38,0.00,,,0.00,WUHU21623XXSP,2013-04-02 19:35:00,
2013-04-02 15:40:00,39.5,15.8,29.96,West,270,8.3,8.3,38,0.00,,,0.00,WUHU21623XXSP,2013-04-02 19:40:00,
2013-04-02 15:45:00,39.5,15.8,29.96,North,0,10.7,10.7,38,0.00,,,0.00,WUHU21623XXSP,2013-04-02 19:45:00,
2013-04-02 15:50:00,39.3,15.0,29.95,WNW,292,9.6,10.7,37,0.00,,,0.00,WUHU21623XXSP,2013-04-02 19:50:00,
2013-04-02 15:57:00,38.2,14.0,29.95,WNW,292,12.1,12.1,37,0.00,,,0.00,WUHU21623XXSP,2013-04-02 19:57:00,
2013-04-02 16:02:00,38.1,13.9,29.96,NW,315,13.9,13.9,37,0.00,,,0.00,WUHU21623XXSP,2013-04-02 20:02:00,
2013-04-02 16:08:00,37.9,13.7,29.95,North,0,7.4,13.9,37,0.00,,,0.00,WUHU21623XXSP,2013-04-02 20:08:00,
2013-04-02 16:13:00,37.9,14.3,29.95,WNW,292,6.0,7.4,38,0.00,,,0.00,WUHU21623XXSP,2013-04-02 20:13:00,
2013-04-02 16:18:00,37.9,13.7,29.95,WSW,247,6.9,6.9,37,0.00,,,0.00,WUHU21623XXSP,2013-04-02 20:18:00,
2013-04-02 16:23:00,37.5,13.3,29.96,NW,315,3.8,8.5,37,0.00,,,0.00,WUHU21623XXSP,2013-04-02 20:23:00,
2013-04-02 16:29:00,37.5,13.3,29.96,NNW,337,5.4,5.4,37,0.00,,,0.00,WUHU21623XXSP,2013-04-02 20:29:00,
2013-04-02 16:34:00,37.5,13.3,29.95,NNW,337,3.6,5.4,37,0.00,,,0.00,WUHU21623XXSP,2013-04-02 20:34:00,
2013-04-02 16:39:00,37.5,14.0,29.95,WNW,292,10.3,10.3,38,0.00,,,0.00,WUHU21623XXSP,2013-04-02 20:39:00,
2013-04-02 16:44:00,37.3,13.8,29.95,West,270,6.0,10.3,38,0.00,,,0.00,WUHU21623XXSP,2013-04-02 20:44:00,
2013-04-02 16:49:00,37.7,14.1,29.95,NNW,337,5.6,6.0,38,0.00,,,0.00,WUHU21623XXSP,2013-04-02 20:49:00,
2013-04-02 16:54:00,38.1,14.5,29.95,NNW,337,5.6,5.6,38,0.00,,,0.00,WUHU21623XXSP,2013-04-02 20:54:00,
2013-04-02 16:59:00,38.4,14.8,29.96,WNW,292,11.4,11.4,38,0.00,,,0.00,WUHU21623XXSP,2013-04-02 20:59:00,
2013-04-02 17:08:00,38.4,14.2,29.95,SSW,202,7.2,11.4,37,0.00,,,0.00,WUHU21623XXSP,2013-04-02 21:08:00,
2013-04-02 17:13:00,38.4,14.2,29.96,NNW,337,3.1,7.2,37,0.00,,,0.00,WUHU21623XXSP,2013-04-02 21:13:00,
2013-04-02 17:21:00,38.1,13.3,29.96,North,0,11.0,11.0,36,0.00,,,0.00,WUHU21623XXSP,2013-04-02 21:21:00,
2013-04-02 17:26:00,37.9,13.1,29.97,NNW,337,15.0,15.0,36,0.00,,,0.00,WUHU21623XXSP,2013-04-02 21:26:00,
2013-04-02 17:31:00,37.5,13.3,29.97,WNW,292,8.3,15.0,37,0.00,,,0.00,WUHU21623XXSP,2013-04-02 21:31:00,
2013-04-02 17:36:00,37.3,13.2,29.97,WSW,247,6.3,8.3,37,0.00,,,0.00,WUHU21623XXSP,2013-04-02 21:36:00,
2013-04-02 17:41:00,36.8,12.7,29.97,WNW,292,6.5,8.3,37,0.00,,,0.00,WUHU21623XXSP,2013-04-02 21:41:00,
2013-04-02 17:51:00,36.4,12.4,29.98,NNW,337,5.1,5.1,37,0.00,,,0.00,WUHU21623XXSP,2013-04-02 21:51:00,
2013-04-02 17:56:00,36.3,12.3,29.98,North,0,6.9,6.9,37,0.00,,,0.00,WUHU21623XXSP,2013-04-02 21:56:00,
2013-04-02 18:02:00,35.7,11.1,29.98,WNW,292,5.8,15.0,36,0.00,,,0.00,WUHU21623XXSP,2013-04-02 22:02:00,
2013-04-02 18:07:00,35.7,11.7,29.98,NNW,337,7.8,15.0,37,0.00,,,0.00,WUHU21623XXSP,2013-04-02 22:07:00,
2013-04-02 18:12:00,35.5,11.6,29.99,WNW,292,4.0,7.8,37,0.00,,,0.00,WUHU21623XXSP,2013-04-02 22:12:00,
2013-04-02 18:17:00,35.7,12.3,29.98,NNW,337,3.6,6.5,38,0.00,,,0.00,WUHU21623XXSP,2013-04-02 22:17:00,
2013-04-02 18:22:00,35.7,11.7,29.98,WNW,292,5.4,5.4,37,0.00,,,0.00,WUHU21623XXSP,2013-04-02 22:22:00,
2013-04-02 18:27:00,35.9,11.9,29.99,WNW,292,7.6,7.6,37,0.00,,,0.00,WUHU21623XXSP,2013-04-02 22:27:00,
2013-04-02 18:32:00,35.7,11.7,29.99,West,270,4.9,7.6,37,0.00,,,0.00,WUHU21623XXSP,2013-04-02 22:32:00,
2013-04-02 18:38:00,35.7,11.7,29.99,WNW,292,5.8,5.8,37,0.00,,,0.00,WUHU21623XXSP,2013-04-02 22:38:00,
2013-04-02 18:43:00,35.7,12.3,29.99,NNW,337,12.1,12.1,38,0.00,,,0.00,WUHU21623XXSP,2013-04-02 22:43:00,
2013-04-02 18:48:00,35.7,11.7,29.99,West,270,8.7,12.1,37,0.00,,,0.00,WUHU21623XXSP,2013-04-02 22:48:00,
2013-04-02 18:55:00,35.9,11.9,29.99,NNW,337,2.2,8.7,37,0.00,,,0.00,WUHU21623XXSP,2013-04-02 22:55:00,
2013-04-02 19:00:00,36.1,12.1,30.00,WNW,292,0.7,2.2,37,0.00,,,0.00,WUHU21623XXSP,2013-04-02 23:00:00,
2013-04-02 19:05:00,35.9,11.9,30.00,WSW,247,7.4,7.4,37,0.00,,,0.00,WUHU21623XXSP,2013-04-02 23:05:00,
2013-04-02 19:10:00,35.7,11.7,30.00,NNW,337,6.9,7.4,37,0.00,,,0.00,WUHU21623XXSP,2013-04-02 23:10:00,
2013-04-02 19:15:00,35.2,11.3,30.00,WNW,292,6.3,6.9,37,0.00,,,0.00,WUHU21623XXSP,2013-04-02 23:15:00,
2013-04-02 19:20:00,34.8,11.5,30.00,WNW,292,6.3,6.3,38,0.00,,,0.00,WUHU21623XXSP,2013-04-02 23:20:00,
2013-04-02 19:25:00,34.3,11.1,30.00,NNW,337,0.0,6.9,38,0.00,,,0.00,WUHU21623XXSP,2013-04-02 23:25:00,
2013-04-02 19:30:00,34.3,11.1,30.00,NW,315,6.9,6.9,38,0.00,,,0.00,WUHU21623XXSP,2013-04-02 23:30:00,
2013-04-02 19:35:00,33.9,10.7,30.01,WNW,292,0.0,6.9,38,0.00,,,0.00,WUHU21623XXSP,2013-04-02 23:35:00,
2013-04-02 19:40:00,33.4,10.9,30.01,NNW,337,7.2,7.2,39,0.00,,,0.00,WUHU21623XXSP,2013-04-02 23:40:00,
2013-04-02 19:45:00,33.2,10.7,30.01,NW,315,6.9,7.2,39,0.00,,,0.00,WUHU21623XXSP,2013-04-02 23:45:00,
2013-04-02 19:50:00,32.8,10.3,30.01,WNW,292,8.1,8.1,39,0.00,,,0.00,WUHU21623XXSP,2013-04-02 23:50:00,
2013-04-02 19:55:00,32.7,10.8,30.02,WNW,292,9.8,9.8,40,0.00,,,0.00,WUHU21623XXSP,2013-04-02 23:55:00,
2013-04-02 20:00:00,32.3,10.5,30.02,NW,315,0.0,9.8,40,0.00,,,0.00,WUHU21623XXSP,2013-04-03 00:00:00,
2013-04-02 20:05:00,32.1,10.3,30.02,North,0,8.7,8.7,40,0.00,,,0.00,WUHU21623XXSP,2013-04-03 00:05:00,
2013-04-02 20:10:00,31.9,10.1,30.02,NW,315,2.5,8.7,40,0.00,,,0.00,WUHU21623XXSP,2013-04-03 00:10:00,
2013-04-02 20:16:00,31.8,10.0,30.02,NNW,337,8.3,8.3,40,0.00,,,0.00,WUHU21623XXSP,2013-04-03 00:16:00,
2013-04-02 20:20:00,31.2,9.5,30.03,NW,315,6.7,8.3,40,0.00,,,0.00,WUHU21623XXSP,2013-04-03 00:20:00,
2013-04-02 20:26:00,31.2,10.0,30.04,NW,315,5.6,7.4,41,0.00,,,0.00,WUHU21623XXSP,2013-04-03 00:26:00,
2013-04-02 20:31:00,30.9,9.8,30.04,NW,315,12.1,12.1,41,0.00,,,0.00,WUHU21623XXSP,2013-04-03 00:31:00,
2013-04-02 20:36:00,30.7,9.6,30.04,NNW,337,2.9,12.1,41,0.00,,,0.00,WUHU21623XXSP,2013-04-03 00:36:00,
2013-04-02 20:42:00,30.3,9.8,30.04,NW,315,7.8,7.8,42,0.00,,,0.00,WUHU21623XXSP,2013-04-03 00:42:00,
2013-04-02 20:50:00,30.1,9.6,30.04,North,0,2.2,7.8,42,0.00,,,0.00,WUHU21623XXSP,2013-04-03 00:50:00,
2013-04-02 20:56:00,30.0,9.5,30.05,WNW,292,6.9,6.9,42,0.00,,,0.00,WUHU21623XXSP,2013-04-03 00:56:00,
2013-04-02 21:01:00,29.8,9.8,30.05,NNW,337,6.3,6.9,43,0.00,,,0.00,WUHU21623XXSP,2013-04-03 01:01:00,
2013-04-02 21:06:00,29.8,9.8,30.05,North,0,10.7,10.7,43,0.00,,,0.00,WUHU21623XXSP,2013-04-03 01:06:00,
2013-04-02 21:11:00,29.6,9.7,30.06,NNW,337,3.6,10.7,43,0.00,,,0.00,WUHU21623XXSP,2013-04-03 01:11:00,
2013-04-02 21:16:00,29.4,9.5,30.06,WNW,292,2.9,3.6,43,0.00,,,0.00,WUHU21623XXSP,2013-04-03 01:16:00,
2013-04-02 21:21:00,29.2,9.8,30.06,NW,315,13.2,13.2,44,0.00,,,0.00,WUHU21623XXSP,2013-04-03 01:21:00,
2013-04-02 21:26:00,29.2,9.8,30.06,NW,315,0.0,13.2,44,0.00,,,0.00,WUHU21623XXSP,2013-04-03 01:26:00,
2013-04-02 21:31:00,29.1,9.7,30.06,NW,315,4.0,4.0,44,0.00,,,0.00,WUHU21623XXSP,2013-04-03 01:31:00,
2013-04-02 21:37:00,28.9,10.1,30.06,NW,315,4.7,4.7,45,0.00,,,0.00,WUHU21623XXSP,2013-04-03 01:37:00,
2013-04-02 21:42:00,28.5,9.7,30.06,NNW,337,0.0,4.7,45,0.00,,,0.00,WUHU21623XXSP,2013-04-03 01:42:00,
2013-04-02 21:47:00,28.5,10.2,30.06,NW,315,0.0,0.0,46,0.00,,,0.00,WUHU21623XXSP,2013-04-03 01:47:00,
2013-04-02 22:25:00,26.7,10.0,30.07,WNW,292,0.0,0.0,49,0.00,,,0.00,WUHU21623XXSP,2013-04-03 02:25:00,
2013-04-02 22:31:00,26.5,10.3,30.07,WNW,292,0.0,0.0,50,0.00,,,0.00,WUHU21623XXSP,2013-04-03 02:31:00,
2013-04-02 22:36:00,26.2,10.0,30.07,WNW,292,0.0,0.0,50,0.00,,,0.00,WUHU21623XXSP,2013-04-03 02:36:00,
2013-04-02 22:41:00,26.2,10.0,30.07,WNW,292,0.0,0.0,50,0.00,,,0.00,WUHU21623XXSP,2013-04-03 02:41:00,
2013-04-02 22:46:00,25.8,10.1,30.07,WNW,292,0.0,0.0,51,0.00,,,0.00,WUHU21623XXSP,2013-04-03 02:46:00,
2013-04-02 22:51:00,25.6,9.9,30.07,WNW,292,0.0,0.0,51,0.00,,,0.00,WUHU21623XXSP,2013-04-03 02:51:00,
2013-04-02 22:56:00,25.5,9.8,30.07,WNW,292,0.0,0.0,51,0.00,,,0.00,WUHU21623XXSP,2013-04-03 02:56:00,
2013-04-02 23:01:00,25.3,10.1,30.07,WNW,292,0.0,0.0,52,0.00,,,0.00,WUHU21623XXSP,2013-04-03 03:01:00,
2013-04-02 23:06:00,25.1,9.9,30.07,WNW,292,0.0,0.0,52,0.00,,,0.00,WUHU21623XXSP,2013-04-03 03:06:00,
2013-04-02 23:12:00,24.9,10.1,30.07,WNW,292,0.0,0.0,53,0.00,,,0.00,WUHU21623XXSP,2013-04-03 03:12:00,
2013-04-02 23:17:00,24.7,9.5,30.07,WNW,292,0.0,0.0,52,0.00,,,0.00,WUHU21623XXSP,2013-04-03 03:17:00,
2013-04-02 23:22:00,24.4,9.7,30.07,WNW,292,0.0,0.0,53,0.00,,,0.00,WUHU21623XXSP,2013-04-03 03:22:00,
2013-04-02 23:27:00,24.4,9.7,30.07,WNW,292,0.0,0.0,53,0.00,,,0.00,WUHU21623XXSP,2013-04-03 03:27:00,
2013-04-02 23:32:00,24.2,9.5,30.07,WNW,292,0.0,0.0,53,0.00,,,0.00,WUHU21623XXSP,2013-04-03 03:32:00,
2013-04-02 23:37:00,24.0,9.7,30.07,WNW,292,0.0,0.0,54,0.00,,,0.00,WUHU21623XXSP,2013-04-03 03:37:00,
2013-04-02 23:42:00,24.0,9.7,30.07,WNW,292,0.0,0.0,54,0.00,,,0.00,WUHU21623XXSP,2013-04-03 03:42:00,